STARLINK-37529, 68918

Orbit data source: Space-Track

STARLINK-37529, 68918 is a payload satellite owned by SpaceX/Seattle (US) in SSO that was launched on Thu, 30 Apr 2026 UTC via an FALCON 9 launch vehicle from the Air Force Western Test Range (AFWTR). Payload-class satellites include a variety of spacecraft equipped with specific instruments for various scientific and technological missions. These include communications satellites like Starlink; space stations such as the ISS; scientific satellites like the Hubble; Earth observation satellites from companies like Planet Labs, Umbra, and HawkEye 360; GPS; miniature CubeSats for education and research; and military/defense satellites.

Loading next visibility...
Identifier
68918, 2026-097Z
Orbit
SSO
Country
Flag of USUS
Related business
Manufacturer
SpaceX/Seattle
Mission
Operational spacecraft
Bus & Motor
STARLINK V2MO, Unknown motor
Mass
575 kg wet, ~530 kg dry
Launch date (UTC)
2026-04-30 (6 days ago)
Launch vehicle
FALCON 9
Launch site
Air Force Western Test Range (AFWTR)
Object type
Payload
Rocket body
Debris
Shape & HBR
Unknown
Radar Cross Section
RCS unknown

Expand to show TLE details & history
Last TLE update: 5 hours ago

TLE from 5 hours ago
0 STARLINK-37529
1 68918U 26097Z   26126.25002315 -.02174788  13125-2 -58624-2 0  9991
2 68918  97.2877 321.3093 0001725  93.8234 134.2954 15.94498761  2182
Epoch: 2026-05-06T06:00Z
TLE epoch observation values (Epoch: 2026-05-06T06:00:02.000Z)
Latitude
-47.89126°
Longitude
179.09995°
Altitude
309.168 km
Speed
7.72 km/s
True Right ascension
08h 52m 53s
True Declination
-47° 42' 31"
Sunlit
Object was in daylight at epoch
Visualization orbit readout
Latitude
Unknown
Longitude
Unknown
Altitude
Unknown
Speed
Unknown
Apparent Right ascension
Unknown
Apparent Declination
Unknown
Sunlit
N/A
Visualization observer readout
Local Sidereal Time
18:53:02
Azimuth
Unknown
Elevation
Unknown
Doppler factor
Unknown
Orbital elements
Apogee altitude
287.723 km
Perigee altitude
285.424 km
Semi-major axis
6,664.71 km
Eccentricity
0.00017
Inclination
97.2877°
RAAN
321.3093°
Arg. of periapsis
93.8234°
True anomaly
134.30955°
Mean anomaly
134.2954°
Eccentric anomaly
134.30247°
Mean motion
3.98907 °/min
Orbital period
90.25 mins
BSTAR
-0.0058624
Loading maneuver chart data...
Computing Atmospheric mass density...
Loading historical data...
Loading historical data...
Loading historical data...
Loading historical data...
Loading historical data...
Loading historical data...
Loading historical data...

Documentation

Showing up to 5 results
|